Location: Pedholt
(56.0260°N, 10.2097°E)
Time: 08:00:38
(UTC+00:00)

Altair - Visible Passes

Search period start: 24 July 2021 00:00
Search period end: 03 August 2021 00:00
Orbit: 1501 x 1682 km, 47.2° (Epoch: 23 July)

Date Brightness Start Highest point End Pass type
(mag) Time Alt. Az. Time Alt. Az. Time Alt. Az.
24 Jul 9.2 01:20:48 10° SSE 01:24:03 12° SE 01:27:17 10° ESE visible
25 Jul 9.2 00:56:56 10° SE 00:59:06 11° SE 01:01:16 10° ESE visible
27 Jul 8.5 02:03:47 10° SSW 02:11:13 28° SE 02:18:34 10° E visible
28 Jul 8.5 01:38:55 10° SSW 01:46:12 27° SE 01:53:22 10° E visible
29 Jul 8.6 01:14:51 12° S 01:21:11 25° SE 01:28:10 10° E visible
30 Jul 8.6 00:50:47 14° S 00:56:10 24° SE 01:02:56 10° E visible
31 Jul 8.6 00:26:40 16° S 00:31:10 22° SE 00:37:42 10° E visible
31 Jul 8.0 02:25:27 10° SW 02:34:00 42° SSE 02:42:25 10° E visible
01 Aug 8.6 00:02:32 16° SSE 00:06:10 21° SE 00:12:26 10° E visible
01 Aug 8.0 02:00:31 10° SW 02:08:56 41° SSE 02:17:17 10° E visible
01 Aug 8.6 23:38:20 17° SSE 23:41:10 19° SE 23:47:08 10° E visible
02 Aug 8.0 01:36:19 13° SW 01:43:52 40° SSE 01:52:10 10° E visible
02 Aug 8.7 23:14:06 17° SSE 23:16:11 18° SE 23:21:49 10° E visible
